sat.trackr.live / text

‹ back to catalog

STARLINK-31260

NORAD 58881 · 2024-020F

PAYLOAD ACTIVE UNKNOWN

§ Identity

Operator
Country
US
Launch date
2024-01-29
Launch site
AFWTR
Launch vehicle
Mass (kg)
RCS (m²)

Purposes: comms

External: N2YO · Heavens-Above · Gunter

§ Orbital elements

Epoch: 2026-09-19T22:37:55.065216Z

Period
93.85 min
Inclination
53.1590°
Eccentricity
0.0001342
Mean motion
15.34394570 rev/d
Perigee alt
461.8 km
Apogee alt
463.6 km
Semi-major
6,840.9 km
B*
5.0823e-5
RAAN
136.4836°
Arg perigee
79.5546°
Mean anomaly
280.5608°
Rev number
14,786

§ Raw data

STARLINK-312601 58881U 24020F   26262.94299844  .00001341  00000+0  50823-4 0  99952 58881  53.1590 136.4836 0001342  79.5546 280.5608 15.34394570147868

JSON: /api/v1/satellites/58881 · /tle

For live sub-satellite position, see the globe view (requires WebGL).

§ Visibility from observer

Set your observer location to see the next 7 days of passes ≥ 10°. The values pass through the URL so the page stays shareable.

No JS? Fill the form by hand. The geolocation button needs JavaScript.